Index of /20260503/WXO-DD/model_gdps/15km/00/030
Name Last modified Size Description
Parent Directory -
20260503T00Z_MSC_GDPS_AbsoluteVorticity_IsbL-0200_LatLon0.15_PT030H.grib2 2026-05-03 03:58 1.5M
20260503T00Z_MSC_GDPS_AbsoluteVorticity_IsbL-0250_LatLon0.15_PT030H.grib2 2026-05-03 03:58 1.3M
20260503T00Z_MSC_GDPS_AbsoluteVorticity_IsbL-0500_LatLon0.15_PT030H.grib2 2026-05-03 03:58 1.5M
20260503T00Z_MSC_GDPS_AbsoluteVorticity_IsbL-0700_LatLon0.15_PT030H.grib2 2026-05-03 03:58 1.3M
20260503T00Z_MSC_GDPS_AbsoluteVorticity_IsbL-0850_LatLon0.15_PT030H.grib2 2026-05-03 03:58 1.6M
20260503T00Z_MSC_GDPS_AirTemp-Max_AGL-2m_LatLon0.15_PT030H.grib2 2026-05-03 03:58 740K
20260503T00Z_MSC_GDPS_AirTemp-Min_AGL-2m_LatLon0.15_PT030H.grib2 2026-05-03 03:58 787K
20260503T00Z_MSC_GDPS_AirTemp_AGL-120m_LatLon0.15_PT030H.grib2 2026-05-03 03:58 902K
20260503T00Z_MSC_GDPS_AirTemp_AGL-2m_LatLon0.15_PT030H.grib2 2026-05-03 03:58 1.0M
20260503T00Z_MSC_GDPS_AirTemp_AGL-40m_LatLon0.15_PT030H.grib2 2026-05-03 03:58 806K
20260503T00Z_MSC_GDPS_AirTemp_AGL-80m_LatLon0.15_PT030H.grib2 2026-05-03 03:58 911K
20260503T00Z_MSC_GDPS_AirTemp_IsbL-0001_LatLon0.15_PT030H.grib2 2026-05-03 03:58 659K
20260503T00Z_MSC_GDPS_AirTemp_IsbL-0005_LatLon0.15_PT030H.grib2 2026-05-03 03:58 682K
20260503T00Z_MSC_GDPS_AirTemp_IsbL-0010_LatLon0.15_PT030H.grib2 2026-05-03 03:58 699K
20260503T00Z_MSC_GDPS_AirTemp_IsbL-0020_LatLon0.15_PT030H.grib2 2026-05-03 03:58 791K
20260503T00Z_MSC_GDPS_AirTemp_IsbL-0030_LatLon0.15_PT030H.grib2 2026-05-03 03:58 837K
20260503T00Z_MSC_GDPS_AirTemp_IsbL-0050_LatLon0.15_PT030H.grib2 2026-05-03 03:58 814K
20260503T00Z_MSC_GDPS_AirTemp_IsbL-0100_LatLon0.15_PT030H.grib2 2026-05-03 03:58 963K
20260503T00Z_MSC_GDPS_AirTemp_IsbL-0150_LatLon0.15_PT030H.grib2 2026-05-03 03:58 973K
20260503T00Z_MSC_GDPS_AirTemp_IsbL-0175_LatLon0.15_PT030H.grib2 2026-05-03 03:58 957K
20260503T00Z_MSC_GDPS_AirTemp_IsbL-0200_LatLon0.15_PT030H.grib2 2026-05-03 03:58 970K
20260503T00Z_MSC_GDPS_AirTemp_IsbL-0225_LatLon0.15_PT030H.grib2 2026-05-03 03:58 1.0M
20260503T00Z_MSC_GDPS_AirTemp_IsbL-0250_LatLon0.15_PT030H.grib2 2026-05-03 03:58 1.0M
20260503T00Z_MSC_GDPS_AirTemp_IsbL-0275_LatLon0.15_PT030H.grib2 2026-05-03 03:58 1.0M
20260503T00Z_MSC_GDPS_AirTemp_IsbL-0300_LatLon0.15_PT030H.grib2 2026-05-03 03:58 944K
20260503T00Z_MSC_GDPS_AirTemp_IsbL-0350_LatLon0.15_PT030H.grib2 2026-05-03 03:58 925K
20260503T00Z_MSC_GDPS_AirTemp_IsbL-0400_LatLon0.15_PT030H.grib2 2026-05-03 03:58 938K
20260503T00Z_MSC_GDPS_AirTemp_IsbL-0450_LatLon0.15_PT030H.grib2 2026-05-03 03:58 962K
20260503T00Z_MSC_GDPS_AirTemp_IsbL-0500_LatLon0.15_PT030H.grib2 2026-05-03 03:58 1.0M
20260503T00Z_MSC_GDPS_AirTemp_IsbL-0550_LatLon0.15_PT030H.grib2 2026-05-03 03:58 799K
20260503T00Z_MSC_GDPS_AirTemp_IsbL-0600_LatLon0.15_PT030H.grib2 2026-05-03 03:58 889K
20260503T00Z_MSC_GDPS_AirTemp_IsbL-0650_LatLon0.15_PT030H.grib2 2026-05-03 03:58 912K
20260503T00Z_MSC_GDPS_AirTemp_IsbL-0700_LatLon0.15_PT030H.grib2 2026-05-03 03:58 945K
20260503T00Z_MSC_GDPS_AirTemp_IsbL-0750_LatLon0.15_PT030H.grib2 2026-05-03 03:58 1.0M
20260503T00Z_MSC_GDPS_AirTemp_IsbL-0800_LatLon0.15_PT030H.grib2 2026-05-03 03:58 1.1M
20260503T00Z_MSC_GDPS_AirTemp_IsbL-0850_LatLon0.15_PT030H.grib2 2026-05-03 03:58 1.1M
20260503T00Z_MSC_GDPS_AirTemp_IsbL-0875_LatLon0.15_PT030H.grib2 2026-05-03 03:58 1.1M
20260503T00Z_MSC_GDPS_AirTemp_IsbL-0900_LatLon0.15_PT030H.grib2 2026-05-03 03:58 1.1M
20260503T00Z_MSC_GDPS_AirTemp_IsbL-0925_LatLon0.15_PT030H.grib2 2026-05-03 03:58 1.1M
20260503T00Z_MSC_GDPS_AirTemp_IsbL-0950_LatLon0.15_PT030H.grib2 2026-05-03 03:58 1.1M
20260503T00Z_MSC_GDPS_AirTemp_IsbL-0970_LatLon0.15_PT030H.grib2 2026-05-03 03:58 1.1M
20260503T00Z_MSC_GDPS_AirTemp_IsbL-0985_LatLon0.15_PT030H.grib2 2026-05-03 03:58 1.1M
20260503T00Z_MSC_GDPS_AirTemp_IsbL-1000_LatLon0.15_PT030H.grib2 2026-05-03 03:58 1.1M
20260503T00Z_MSC_GDPS_AirTemp_IsbL-1015_LatLon0.15_PT030H.grib2 2026-05-03 03:58 1.1M
20260503T00Z_MSC_GDPS_Albedo_Sfc_LatLon0.15_PT030H.grib2 2026-05-03 03:58 243K
20260503T00Z_MSC_GDPS_CAPE_Sfc_LatLon0.15_PT030H.grib2 2026-05-03 03:58 4.1M
20260503T00Z_MSC_GDPS_CIN_Sfc_LatLon0.15_PT030H.grib2 2026-05-03 03:58 2.8M
20260503T00Z_MSC_GDPS_CloudWater_EAtm_LatLon0.15_PT030H.grib2 2026-05-03 03:58 526K
20260503T00Z_MSC_GDPS_ConvectivePrecip-Accum_Sfc_LatLon0.15_PT030H.grib2 2026-05-03 03:58 2.5M
20260503T00Z_MSC_GDPS_DewPointDepression_AGL-2m_LatLon0.15_PT030H.grib2 2026-05-03 03:58 602K
20260503T00Z_MSC_GDPS_DewPointDepression_IsbL-0010_LatLon0.15_PT030H.grib2 2026-05-03 03:58 73K
20260503T00Z_MSC_GDPS_DewPointDepression_IsbL-0020_LatLon0.15_PT030H.grib2 2026-05-03 03:58 71K
20260503T00Z_MSC_GDPS_DewPointDepression_IsbL-0030_LatLon0.15_PT030H.grib2 2026-05-03 03:58 85K
20260503T00Z_MSC_GDPS_DewPointDepression_IsbL-0050_LatLon0.15_PT030H.grib2 2026-05-03 03:58 382K
20260503T00Z_MSC_GDPS_DewPointDepression_IsbL-0100_LatLon0.15_PT030H.grib2 2026-05-03 03:58 410K
20260503T00Z_MSC_GDPS_DewPointDepression_IsbL-0150_LatLon0.15_PT030H.grib2 2026-05-03 03:58 468K
20260503T00Z_MSC_GDPS_DewPointDepression_IsbL-0175_LatLon0.15_PT030H.grib2 2026-05-03 03:58 575K
20260503T00Z_MSC_GDPS_DewPointDepression_IsbL-0200_LatLon0.15_PT030H.grib2 2026-05-03 03:58 684K
20260503T00Z_MSC_GDPS_DewPointDepression_IsbL-0225_LatLon0.15_PT030H.grib2 2026-05-03 03:58 781K
20260503T00Z_MSC_GDPS_DewPointDepression_IsbL-0250_LatLon0.15_PT030H.grib2 2026-05-03 03:58 864K
20260503T00Z_MSC_GDPS_DewPointDepression_IsbL-0275_LatLon0.15_PT030H.grib2 2026-05-03 03:58 883K
20260503T00Z_MSC_GDPS_DewPointDepression_IsbL-0300_LatLon0.15_PT030H.grib2 2026-05-03 03:58 923K
20260503T00Z_MSC_GDPS_DewPointDepression_IsbL-0350_LatLon0.15_PT030H.grib2 2026-05-03 03:58 952K
20260503T00Z_MSC_GDPS_DewPointDepression_IsbL-0400_LatLon0.15_PT030H.grib2 2026-05-03 03:58 1.0M
20260503T00Z_MSC_GDPS_DewPointDepression_IsbL-0450_LatLon0.15_PT030H.grib2 2026-05-03 03:58 1.0M
20260503T00Z_MSC_GDPS_DewPointDepression_IsbL-0500_LatLon0.15_PT030H.grib2 2026-05-03 03:58 1.0M
20260503T00Z_MSC_GDPS_DewPointDepression_IsbL-0550_LatLon0.15_PT030H.grib2 2026-05-03 03:58 1.0M
20260503T00Z_MSC_GDPS_DewPointDepression_IsbL-0600_LatLon0.15_PT030H.grib2 2026-05-03 03:58 1.0M
20260503T00Z_MSC_GDPS_DewPointDepression_IsbL-0650_LatLon0.15_PT030H.grib2 2026-05-03 03:58 1.0M
20260503T00Z_MSC_GDPS_DewPointDepression_IsbL-0700_LatLon0.15_PT030H.grib2 2026-05-03 03:58 1.1M
20260503T00Z_MSC_GDPS_DewPointDepression_IsbL-0750_LatLon0.15_PT030H.grib2 2026-05-03 03:58 1.1M
20260503T00Z_MSC_GDPS_DewPointDepression_IsbL-0800_LatLon0.15_PT030H.grib2 2026-05-03 03:58 1.2M
20260503T00Z_MSC_GDPS_DewPointDepression_IsbL-0850_LatLon0.15_PT030H.grib2 2026-05-03 03:58 1.1M
20260503T00Z_MSC_GDPS_DewPointDepression_IsbL-0875_LatLon0.15_PT030H.grib2 2026-05-03 03:58 1.1M
20260503T00Z_MSC_GDPS_DewPointDepression_IsbL-0900_LatLon0.15_PT030H.grib2 2026-05-03 03:58 1.1M
20260503T00Z_MSC_GDPS_DewPointDepression_IsbL-0925_LatLon0.15_PT030H.grib2 2026-05-03 03:58 1.0M
20260503T00Z_MSC_GDPS_DewPointDepression_IsbL-0950_LatLon0.15_PT030H.grib2 2026-05-03 03:58 1.0M
20260503T00Z_MSC_GDPS_DewPointDepression_IsbL-0970_LatLon0.15_PT030H.grib2 2026-05-03 03:58 1.0M
20260503T00Z_MSC_GDPS_DewPointDepression_IsbL-0985_LatLon0.15_PT030H.grib2 2026-05-03 03:58 1.0M
20260503T00Z_MSC_GDPS_DewPointDepression_IsbL-1000_LatLon0.15_PT030H.grib2 2026-05-03 03:58 971K
20260503T00Z_MSC_GDPS_DewPointDepression_IsbL-1015_LatLon0.15_PT030H.grib2 2026-05-03 03:58 915K
20260503T00Z_MSC_GDPS_DewPoint_AGL-2m_LatLon0.15_PT030H.grib2 2026-05-03 03:58 606K
20260503T00Z_MSC_GDPS_DownwardLongwaveRadiationFlux-Accum_Sfc_LatLon0.15_PT030H.grib2 2026-05-03 03:58 754K
20260503T00Z_MSC_GDPS_DownwardShortwaveRadiationFlux-Accum_NTAtm_LatLon0.15_PT030H.grib2 2026-05-03 03:58 221K
20260503T00Z_MSC_GDPS_DownwardShortwaveRadiationFlux-Accum_Sfc_LatLon0.15_PT030H.grib2 2026-05-03 03:58 893K
20260503T00Z_MSC_GDPS_FreezingRain-Accum12h_Sfc_LatLon0.15_PT030H.grib2 2026-05-03 03:58 67K
20260503T00Z_MSC_GDPS_FreezingRain-Accum1h_Sfc_LatLon0.15_PT030H.grib2 2026-05-03 03:58 34K
20260503T00Z_MSC_GDPS_FreezingRain-Accum24h_Sfc_LatLon0.15_PT030H.grib2 2026-05-03 03:58 108K
20260503T00Z_MSC_GDPS_FreezingRain-Accum3h_Sfc_LatLon0.15_PT030H.grib2 2026-05-03 03:58 33K
20260503T00Z_MSC_GDPS_FreezingRain-Accum6h_Sfc_LatLon0.15_PT030H.grib2 2026-05-03 03:58 46K
20260503T00Z_MSC_GDPS_FreezingRain-Accum_Sfc_LatLon0.15_PT030H.grib2 2026-05-03 03:58 138K
20260503T00Z_MSC_GDPS_GeopotentialHeight_IsbL-0001_LatLon0.15_PT030H.grib2 2026-05-03 03:58 435K
20260503T00Z_MSC_GDPS_GeopotentialHeight_IsbL-0005_LatLon0.15_PT030H.grib2 2026-05-03 03:58 487K
20260503T00Z_MSC_GDPS_GeopotentialHeight_IsbL-0010_LatLon0.15_PT030H.grib2 2026-05-03 03:58 475K
20260503T00Z_MSC_GDPS_GeopotentialHeight_IsbL-0020_LatLon0.15_PT030H.grib2 2026-05-03 03:58 413K
20260503T00Z_MSC_GDPS_GeopotentialHeight_IsbL-0030_LatLon0.15_PT030H.grib2 2026-05-03 03:58 569K
20260503T00Z_MSC_GDPS_GeopotentialHeight_IsbL-0050_LatLon0.15_PT030H.grib2 2026-05-03 03:58 570K
20260503T00Z_MSC_GDPS_GeopotentialHeight_IsbL-0100_LatLon0.15_PT030H.grib2 2026-05-03 03:58 608K
20260503T00Z_MSC_GDPS_GeopotentialHeight_IsbL-0150_LatLon0.15_PT030H.grib2 2026-05-03 03:58 624K
20260503T00Z_MSC_GDPS_GeopotentialHeight_IsbL-0175_LatLon0.15_PT030H.grib2 2026-05-03 03:58 627K
20260503T00Z_MSC_GDPS_GeopotentialHeight_IsbL-0200_LatLon0.15_PT030H.grib2 2026-05-03 03:58 632K
20260503T00Z_MSC_GDPS_GeopotentialHeight_IsbL-0225_LatLon0.15_PT030H.grib2 2026-05-03 03:58 632K
20260503T00Z_MSC_GDPS_GeopotentialHeight_IsbL-0250_LatLon0.15_PT030H.grib2 2026-05-03 03:58 642K
20260503T00Z_MSC_GDPS_GeopotentialHeight_IsbL-0275_LatLon0.15_PT030H.grib2 2026-05-03 03:58 641K
20260503T00Z_MSC_GDPS_GeopotentialHeight_IsbL-0300_LatLon0.15_PT030H.grib2 2026-05-03 03:58 640K
20260503T00Z_MSC_GDPS_GeopotentialHeight_IsbL-0350_LatLon0.15_PT030H.grib2 2026-05-03 03:58 629K
20260503T00Z_MSC_GDPS_GeopotentialHeight_IsbL-0400_LatLon0.15_PT030H.grib2 2026-05-03 03:58 622K
20260503T00Z_MSC_GDPS_GeopotentialHeight_IsbL-0450_LatLon0.15_PT030H.grib2 2026-05-03 03:58 613K
20260503T00Z_MSC_GDPS_GeopotentialHeight_IsbL-0500_LatLon0.15_PT030H.grib2 2026-05-03 03:58 599K
20260503T00Z_MSC_GDPS_GeopotentialHeight_IsbL-0550_LatLon0.15_PT030H.grib2 2026-05-03 03:58 526K
20260503T00Z_MSC_GDPS_GeopotentialHeight_IsbL-0600_LatLon0.15_PT030H.grib2 2026-05-03 03:58 523K
20260503T00Z_MSC_GDPS_GeopotentialHeight_IsbL-0650_LatLon0.15_PT030H.grib2 2026-05-03 03:58 688K
20260503T00Z_MSC_GDPS_GeopotentialHeight_IsbL-0700_LatLon0.15_PT030H.grib2 2026-05-03 03:58 683K
20260503T00Z_MSC_GDPS_GeopotentialHeight_IsbL-0750_LatLon0.15_PT030H.grib2 2026-05-03 03:58 693K
20260503T00Z_MSC_GDPS_GeopotentialHeight_IsbL-0800_LatLon0.15_PT030H.grib2 2026-05-03 03:58 702K
20260503T00Z_MSC_GDPS_GeopotentialHeight_IsbL-0850_LatLon0.15_PT030H.grib2 2026-05-03 03:58 713K
20260503T00Z_MSC_GDPS_GeopotentialHeight_IsbL-0875_LatLon0.15_PT030H.grib2 2026-05-03 03:58 718K
20260503T00Z_MSC_GDPS_GeopotentialHeight_IsbL-0900_LatLon0.15_PT030H.grib2 2026-05-03 03:58 724K
20260503T00Z_MSC_GDPS_GeopotentialHeight_IsbL-0925_LatLon0.15_PT030H.grib2 2026-05-03 03:58 732K
20260503T00Z_MSC_GDPS_GeopotentialHeight_IsbL-0950_LatLon0.15_PT030H.grib2 2026-05-03 03:58 739K
20260503T00Z_MSC_GDPS_GeopotentialHeight_IsbL-0970_LatLon0.15_PT030H.grib2 2026-05-03 03:58 750K
20260503T00Z_MSC_GDPS_GeopotentialHeight_IsbL-0985_LatLon0.15_PT030H.grib2 2026-05-03 03:58 764K
20260503T00Z_MSC_GDPS_GeopotentialHeight_IsbL-1000_LatLon0.15_PT030H.grib2 2026-05-03 03:58 785K
20260503T00Z_MSC_GDPS_GeopotentialHeight_IsbL-1015_LatLon0.15_PT030H.grib2 2026-05-03 03:58 802K
20260503T00Z_MSC_GDPS_Humidex_Sfc_LatLon0.15_PT030H.grib2 2026-05-03 03:58 5.3M
20260503T00Z_MSC_GDPS_IcePellets-Accum12h_Sfc_LatLon0.15_PT030H.grib2 2026-05-03 03:58 12K
20260503T00Z_MSC_GDPS_IcePellets-Accum1h_Sfc_LatLon0.15_PT030H.grib2 2026-05-03 03:58 4.4K
20260503T00Z_MSC_GDPS_IcePellets-Accum24h_Sfc_LatLon0.15_PT030H.grib2 2026-05-03 03:58 15K
20260503T00Z_MSC_GDPS_IcePellets-Accum3h_Sfc_LatLon0.15_PT030H.grib2 2026-05-03 03:58 4.8K
20260503T00Z_MSC_GDPS_IcePellets-Accum6h_Sfc_LatLon0.15_PT030H.grib2 2026-05-03 03:58 8.2K
20260503T00Z_MSC_GDPS_IcePellets-Accum_Sfc_LatLon0.15_PT030H.grib2 2026-05-03 03:58 18K
20260503T00Z_MSC_GDPS_KIndex_Sfc_LatLon0.15_PT030H.grib2 2026-05-03 03:58 6.5M
20260503T00Z_MSC_GDPS_LatentHeatNetFlux_Sfc_LatLon0.15_PT030H.grib2 2026-05-03 03:58 542K
20260503T00Z_MSC_GDPS_LiftedIndex-MU-VT_IsbL-0500_LatLon0.15_PT030H.grib2 2026-05-03 03:58 5.4M
20260503T00Z_MSC_GDPS_NetLongwaveRadiationFlux-Accum_Sfc_LatLon0.15_PT030H.grib2 2026-05-03 03:58 1.3M
20260503T00Z_MSC_GDPS_NetShortwaveRadiationFlux-Accum_Sfc_LatLon0.15_PT030H.grib2 2026-05-03 03:58 947K
20260503T00Z_MSC_GDPS_O3MixingRatio_Sfc_LatLon0.15_PT030H.grib2 2026-05-03 04:44 2.0M
20260503T00Z_MSC_GDPS_O3_EAtm_LatLon0.15_PT030H.grib2 2026-05-03 04:44 2.5M
20260503T00Z_MSC_GDPS_PlanetaryBoundaryLayerHeight_Sfc_LatLon0.15_PT030H.grib2 2026-05-03 03:58 2.5M
20260503T00Z_MSC_GDPS_Precip-Accum12h_Sfc_LatLon0.15_PT030H.grib2 2026-05-03 03:58 4.0M
20260503T00Z_MSC_GDPS_Precip-Accum1h_Sfc_LatLon0.15_PT030H.grib2 2026-05-03 03:58 3.5M
20260503T00Z_MSC_GDPS_Precip-Accum24h_Sfc_LatLon0.15_PT030H.grib2 2026-05-03 03:58 4.5M
20260503T00Z_MSC_GDPS_Precip-Accum3h_Sfc_LatLon0.15_PT030H.grib2 2026-05-03 03:58 3.5M
20260503T00Z_MSC_GDPS_Precip-Accum6h_Sfc_LatLon0.15_PT030H.grib2 2026-05-03 03:58 3.8M
20260503T00Z_MSC_GDPS_Precip-Accum_Sfc_LatLon0.15_PT030H.grib2 2026-05-03 03:58 4.5M
20260503T00Z_MSC_GDPS_PrecipRate_Sfc_LatLon0.15_PT030H.grib2 2026-05-03 03:58 3.0M
20260503T00Z_MSC_GDPS_PrecipType-Instant_Sfc_LatLon0.15_PT030H.grib2 2026-05-03 03:58 1.6M
20260503T00Z_MSC_GDPS_Pressure_MSL_LatLon0.15_PT030H.grib2 2026-05-03 03:58 815K
20260503T00Z_MSC_GDPS_Pressure_PVU-1.5_LatLon0.15_PT030H.grib2 2026-05-03 03:58 5.8M
20260503T00Z_MSC_GDPS_Pressure_PVU-1_LatLon0.15_PT030H.grib2 2026-05-03 03:58 6.0M
20260503T00Z_MSC_GDPS_Pressure_PVU-2_LatLon0.15_PT030H.grib2 2026-05-03 03:58 5.6M
20260503T00Z_MSC_GDPS_Pressure_Sfc_LatLon0.15_PT030H.grib2 2026-05-03 03:58 1.1M
20260503T00Z_MSC_GDPS_RadiativeTemp_Sfc_LatLon0.15_PT030H.grib2 2026-05-03 03:58 495K
20260503T00Z_MSC_GDPS_Rain-Accum12h_Sfc_LatLon0.15_PT030H.grib2 2026-05-03 03:58 2.7M
20260503T00Z_MSC_GDPS_Rain-Accum1h_Sfc_LatLon0.15_PT030H.grib2 2026-05-03 03:58 1.7M
20260503T00Z_MSC_GDPS_Rain-Accum24h_Sfc_LatLon0.15_PT030H.grib2 2026-05-03 03:58 3.1M
20260503T00Z_MSC_GDPS_Rain-Accum3h_Sfc_LatLon0.15_PT030H.grib2 2026-05-03 03:58 1.6M
20260503T00Z_MSC_GDPS_Rain-Accum6h_Sfc_LatLon0.15_PT030H.grib2 2026-05-03 03:58 2.4M
20260503T00Z_MSC_GDPS_Rain-Accum_Sfc_LatLon0.15_PT030H.grib2 2026-05-03 03:58 3.3M
20260503T00Z_MSC_GDPS_RelativeHumidity_AGL-2m_LatLon0.15_PT030H.grib2 2026-05-03 03:58 1.1M
20260503T00Z_MSC_GDPS_RelativeHumidity_IsbL-0010_LatLon0.15_PT030H.grib2 2026-05-03 03:58 138K
20260503T00Z_MSC_GDPS_RelativeHumidity_IsbL-0020_LatLon0.15_PT030H.grib2 2026-05-03 03:58 176K
20260503T00Z_MSC_GDPS_RelativeHumidity_IsbL-0030_LatLon0.15_PT030H.grib2 2026-05-03 03:58 274K
20260503T00Z_MSC_GDPS_RelativeHumidity_IsbL-0050_LatLon0.15_PT030H.grib2 2026-05-03 03:58 426K
20260503T00Z_MSC_GDPS_RelativeHumidity_IsbL-0100_LatLon0.15_PT030H.grib2 2026-05-03 03:58 515K
20260503T00Z_MSC_GDPS_RelativeHumidity_IsbL-0150_LatLon0.15_PT030H.grib2 2026-05-03 03:58 659K
20260503T00Z_MSC_GDPS_RelativeHumidity_IsbL-0175_LatLon0.15_PT030H.grib2 2026-05-03 03:58 781K
20260503T00Z_MSC_GDPS_RelativeHumidity_IsbL-0200_LatLon0.15_PT030H.grib2 2026-05-03 03:58 699K
20260503T00Z_MSC_GDPS_RelativeHumidity_IsbL-0225_LatLon0.15_PT030H.grib2 2026-05-03 03:58 784K
20260503T00Z_MSC_GDPS_RelativeHumidity_IsbL-0250_LatLon0.15_PT030H.grib2 2026-05-03 03:58 862K
20260503T00Z_MSC_GDPS_RelativeHumidity_IsbL-0275_LatLon0.15_PT030H.grib2 2026-05-03 03:58 884K
20260503T00Z_MSC_GDPS_RelativeHumidity_IsbL-0300_LatLon0.15_PT030H.grib2 2026-05-03 03:58 924K
20260503T00Z_MSC_GDPS_RelativeHumidity_IsbL-0350_LatLon0.15_PT030H.grib2 2026-05-03 03:58 945K
20260503T00Z_MSC_GDPS_RelativeHumidity_IsbL-0400_LatLon0.15_PT030H.grib2 2026-05-03 03:58 970K
20260503T00Z_MSC_GDPS_RelativeHumidity_IsbL-0450_LatLon0.15_PT030H.grib2 2026-05-03 03:58 1.0M
20260503T00Z_MSC_GDPS_RelativeHumidity_IsbL-0500_LatLon0.15_PT030H.grib2 2026-05-03 03:58 1.0M
20260503T00Z_MSC_GDPS_RelativeHumidity_IsbL-0550_LatLon0.15_PT030H.grib2 2026-05-03 03:58 1.1M
20260503T00Z_MSC_GDPS_RelativeHumidity_IsbL-0600_LatLon0.15_PT030H.grib2 2026-05-03 03:58 1.1M
20260503T00Z_MSC_GDPS_RelativeHumidity_IsbL-0650_LatLon0.15_PT030H.grib2 2026-05-03 03:58 1.1M
20260503T00Z_MSC_GDPS_RelativeHumidity_IsbL-0700_LatLon0.15_PT030H.grib2 2026-05-03 03:58 1.1M
20260503T00Z_MSC_GDPS_RelativeHumidity_IsbL-0750_LatLon0.15_PT030H.grib2 2026-05-03 03:58 1.2M
20260503T00Z_MSC_GDPS_RelativeHumidity_IsbL-0800_LatLon0.15_PT030H.grib2 2026-05-03 03:58 1.2M
20260503T00Z_MSC_GDPS_RelativeHumidity_IsbL-0850_LatLon0.15_PT030H.grib2 2026-05-03 03:58 1.3M
20260503T00Z_MSC_GDPS_RelativeHumidity_IsbL-0875_LatLon0.15_PT030H.grib2 2026-05-03 03:58 1.3M
20260503T00Z_MSC_GDPS_RelativeHumidity_IsbL-0900_LatLon0.15_PT030H.grib2 2026-05-03 03:58 1.3M
20260503T00Z_MSC_GDPS_RelativeHumidity_IsbL-0925_LatLon0.15_PT030H.grib2 2026-05-03 03:58 1.2M
20260503T00Z_MSC_GDPS_RelativeHumidity_IsbL-0950_LatLon0.15_PT030H.grib2 2026-05-03 03:58 1.2M
20260503T00Z_MSC_GDPS_RelativeHumidity_IsbL-0970_LatLon0.15_PT030H.grib2 2026-05-03 03:58 1.2M
20260503T00Z_MSC_GDPS_RelativeHumidity_IsbL-0985_LatLon0.15_PT030H.grib2 2026-05-03 03:58 1.1M
20260503T00Z_MSC_GDPS_RelativeHumidity_IsbL-1000_LatLon0.15_PT030H.grib2 2026-05-03 03:58 1.1M
20260503T00Z_MSC_GDPS_RelativeHumidity_IsbL-1015_LatLon0.15_PT030H.grib2 2026-05-03 03:58 1.0M
20260503T00Z_MSC_GDPS_RelativeVorticity_IsbL-0200_LatLon0.15_PT030H.grib2 2026-05-03 03:58 1.5M
20260503T00Z_MSC_GDPS_RelativeVorticity_IsbL-0250_LatLon0.15_PT030H.grib2 2026-05-03 03:58 1.3M
20260503T00Z_MSC_GDPS_RelativeVorticity_IsbL-0500_LatLon0.15_PT030H.grib2 2026-05-03 03:58 1.5M
20260503T00Z_MSC_GDPS_RelativeVorticity_IsbL-0700_LatLon0.15_PT030H.grib2 2026-05-03 03:58 1.3M
20260503T00Z_MSC_GDPS_RelativeVorticity_IsbL-0850_LatLon0.15_PT030H.grib2 2026-05-03 03:58 1.6M
20260503T00Z_MSC_GDPS_Runoff-Accum_Sfc_LatLon0.15_PT030H.grib2 2026-05-03 03:58 131K
20260503T00Z_MSC_GDPS_SensibleHeatNetFlux_Sfc_LatLon0.15_PT030H.grib2 2026-05-03 03:58 654K
20260503T00Z_MSC_GDPS_ShowalterIndex_IsbL-0500_LatLon0.15_PT030H.grib2 2026-05-03 03:58 6.2M
20260503T00Z_MSC_GDPS_Snow-Accum12h_Sfc_LatLon0.15_PT030H.grib2 2026-05-03 03:58 1.3M
20260503T00Z_MSC_GDPS_Snow-Accum1h_Sfc_LatLon0.15_PT030H.grib2 2026-05-03 03:58 961K
20260503T00Z_MSC_GDPS_Snow-Accum24h_Sfc_LatLon0.15_PT030H.grib2 2026-05-03 03:58 1.4M
20260503T00Z_MSC_GDPS_Snow-Accum3h_Sfc_LatLon0.15_PT030H.grib2 2026-05-03 03:58 1.0M
20260503T00Z_MSC_GDPS_Snow-Accum6h_Sfc_LatLon0.15_PT030H.grib2 2026-05-03 03:58 1.2M
20260503T00Z_MSC_GDPS_Snow-Accum_Sfc_LatLon0.15_PT030H.grib2 2026-05-03 03:58 1.6M
20260503T00Z_MSC_GDPS_SnowDensity_Sfc_LatLon0.15_PT030H.grib2 2026-05-03 03:58 251K
20260503T00Z_MSC_GDPS_SnowDepth_Sfc_LatLon0.15_PT030H.grib2 2026-05-03 03:58 1.7M
20260503T00Z_MSC_GDPS_SoilTemp_DBS-0to10cm_LatLon0.15_PT030H.grib2 2026-05-03 03:58 500K
20260503T00Z_MSC_GDPS_SoilTemp_Sfc_LatLon0.15_PT030H.grib2 2026-05-03 03:58 578K
20260503T00Z_MSC_GDPS_SoilVolumetricIceContent_Sfc_LatLon0.15_PT030H.grib2 2026-05-03 03:58 195K
20260503T00Z_MSC_GDPS_SoilVolumetricWaterContent_DBS-0to10cm_LatLon0.15_PT030H.grib2 2026-05-03 03:58 589K
20260503T00Z_MSC_GDPS_SoilVolumetricWaterContent_DBS-0to1cm_LatLon0.15_PT030H.grib2 2026-05-03 03:58 648K
20260503T00Z_MSC_GDPS_SpecificHumidity_AGL-120m_LatLon0.15_PT030H.grib2 2026-05-03 03:58 1.1M
20260503T00Z_MSC_GDPS_SpecificHumidity_AGL-2m_LatLon0.15_PT030H.grib2 2026-05-03 03:58 1.2M
20260503T00Z_MSC_GDPS_SpecificHumidity_AGL-40m_LatLon0.15_PT030H.grib2 2026-05-03 03:58 1.1M
20260503T00Z_MSC_GDPS_SpecificHumidity_AGL-80m_LatLon0.15_PT030H.grib2 2026-05-03 03:58 1.1M
20260503T00Z_MSC_GDPS_SpecificHumidity_IsbL-0001_LatLon0.15_PT030H.grib2 2026-05-03 03:58 1.4M
20260503T00Z_MSC_GDPS_SpecificHumidity_IsbL-0005_LatLon0.15_PT030H.grib2 2026-05-03 03:58 1.3M
20260503T00Z_MSC_GDPS_SpecificHumidity_IsbL-0010_LatLon0.15_PT030H.grib2 2026-05-03 03:58 1.4M
20260503T00Z_MSC_GDPS_SpecificHumidity_IsbL-0020_LatLon0.15_PT030H.grib2 2026-05-03 03:58 1.4M
20260503T00Z_MSC_GDPS_SpecificHumidity_IsbL-0030_LatLon0.15_PT030H.grib2 2026-05-03 03:58 1.4M
20260503T00Z_MSC_GDPS_SpecificHumidity_IsbL-0050_LatLon0.15_PT030H.grib2 2026-05-03 03:58 1.7M
20260503T00Z_MSC_GDPS_SpecificHumidity_IsbL-0100_LatLon0.15_PT030H.grib2 2026-05-03 03:58 1.4M
20260503T00Z_MSC_GDPS_SpecificHumidity_IsbL-0150_LatLon0.15_PT030H.grib2 2026-05-03 03:58 1.3M
20260503T00Z_MSC_GDPS_SpecificHumidity_IsbL-0175_LatLon0.15_PT030H.grib2 2026-05-03 03:58 1.3M
20260503T00Z_MSC_GDPS_SpecificHumidity_IsbL-0200_LatLon0.15_PT030H.grib2 2026-05-03 03:58 1.3M
20260503T00Z_MSC_GDPS_SpecificHumidity_IsbL-0225_LatLon0.15_PT030H.grib2 2026-05-03 03:58 1.3M
20260503T00Z_MSC_GDPS_SpecificHumidity_IsbL-0250_LatLon0.15_PT030H.grib2 2026-05-03 03:58 1.4M
20260503T00Z_MSC_GDPS_SpecificHumidity_IsbL-0275_LatLon0.15_PT030H.grib2 2026-05-03 03:58 1.3M
20260503T00Z_MSC_GDPS_SpecificHumidity_IsbL-0300_LatLon0.15_PT030H.grib2 2026-05-03 03:58 1.2M
20260503T00Z_MSC_GDPS_SpecificHumidity_IsbL-0350_LatLon0.15_PT030H.grib2 2026-05-03 03:58 1.2M
20260503T00Z_MSC_GDPS_SpecificHumidity_IsbL-0400_LatLon0.15_PT030H.grib2 2026-05-03 03:58 1.4M
20260503T00Z_MSC_GDPS_SpecificHumidity_IsbL-0450_LatLon0.15_PT030H.grib2 2026-05-03 03:58 1.6M
20260503T00Z_MSC_GDPS_SpecificHumidity_IsbL-0500_LatLon0.15_PT030H.grib2 2026-05-03 03:58 1.4M
20260503T00Z_MSC_GDPS_SpecificHumidity_IsbL-0550_LatLon0.15_PT030H.grib2 2026-05-03 03:58 1.6M
20260503T00Z_MSC_GDPS_SpecificHumidity_IsbL-0600_LatLon0.15_PT030H.grib2 2026-05-03 03:58 1.7M
20260503T00Z_MSC_GDPS_SpecificHumidity_IsbL-0650_LatLon0.15_PT030H.grib2 2026-05-03 03:58 1.5M
20260503T00Z_MSC_GDPS_SpecificHumidity_IsbL-0700_LatLon0.15_PT030H.grib2 2026-05-03 03:58 1.6M
20260503T00Z_MSC_GDPS_SpecificHumidity_IsbL-0750_LatLon0.15_PT030H.grib2 2026-05-03 03:58 1.7M
20260503T00Z_MSC_GDPS_SpecificHumidity_IsbL-0800_LatLon0.15_PT030H.grib2 2026-05-03 03:58 1.8M
20260503T00Z_MSC_GDPS_SpecificHumidity_IsbL-0850_LatLon0.15_PT030H.grib2 2026-05-03 03:58 1.9M
20260503T00Z_MSC_GDPS_SpecificHumidity_IsbL-0875_LatLon0.15_PT030H.grib2 2026-05-03 03:58 1.9M
20260503T00Z_MSC_GDPS_SpecificHumidity_IsbL-0900_LatLon0.15_PT030H.grib2 2026-05-03 03:58 1.6M
20260503T00Z_MSC_GDPS_SpecificHumidity_IsbL-0925_LatLon0.15_PT030H.grib2 2026-05-03 03:58 1.6M
20260503T00Z_MSC_GDPS_SpecificHumidity_IsbL-0950_LatLon0.15_PT030H.grib2 2026-05-03 03:58 1.6M
20260503T00Z_MSC_GDPS_SpecificHumidity_IsbL-0970_LatLon0.15_PT030H.grib2 2026-05-03 03:58 1.5M
20260503T00Z_MSC_GDPS_SpecificHumidity_IsbL-0985_LatLon0.15_PT030H.grib2 2026-05-03 03:58 1.5M
20260503T00Z_MSC_GDPS_SpecificHumidity_IsbL-1000_LatLon0.15_PT030H.grib2 2026-05-03 03:58 1.5M
20260503T00Z_MSC_GDPS_SpecificHumidity_IsbL-1015_LatLon0.15_PT030H.grib2 2026-05-03 03:58 1.4M
20260503T00Z_MSC_GDPS_SpecificHumidity_Sfc_LatLon0.15_PT030H.grib2 2026-05-03 03:58 586K
20260503T00Z_MSC_GDPS_Thickness_IsbL-0850to0700_LatLon0.15_PT030H.grib2 2026-05-03 03:58 467K
20260503T00Z_MSC_GDPS_Thickness_IsbL-1000to0500_LatLon0.15_PT030H.grib2 2026-05-03 03:58 371K
20260503T00Z_MSC_GDPS_Thickness_IsbL-1000to0850_LatLon0.15_PT030H.grib2 2026-05-03 03:58 487K
20260503T00Z_MSC_GDPS_TotalCloudCover_Sfc_LatLon0.15_PT030H.grib2 2026-05-03 03:58 827K
20260503T00Z_MSC_GDPS_TotalTotalsIndex_Sfc_LatLon0.15_PT030H.grib2 2026-05-03 03:58 6.2M
20260503T00Z_MSC_GDPS_UVIndex-ClearSky_Sfc_LatLon0.15_PT030H.grib2 2026-05-03 04:44 1.1M
20260503T00Z_MSC_GDPS_UVIndex_Sfc_LatLon0.15_PT030H.grib2 2026-05-03 04:44 1.5M
20260503T00Z_MSC_GDPS_UpwardLongwaveRadiationFlux_NTAtm_LatLon0.15_PT030H.grib2 2026-05-03 03:58 834K
20260503T00Z_MSC_GDPS_VerticalVelocity_IsbL-0200_LatLon0.15_PT030H.grib2 2026-05-03 03:58 1.2M
20260503T00Z_MSC_GDPS_VerticalVelocity_IsbL-0250_LatLon0.15_PT030H.grib2 2026-05-03 03:58 1.0M
20260503T00Z_MSC_GDPS_VerticalVelocity_IsbL-0500_LatLon0.15_PT030H.grib2 2026-05-03 03:58 1.0M
20260503T00Z_MSC_GDPS_VerticalVelocity_IsbL-0600_LatLon0.15_PT030H.grib2 2026-05-03 03:58 1.1M
20260503T00Z_MSC_GDPS_VerticalVelocity_IsbL-0700_LatLon0.15_PT030H.grib2 2026-05-03 03:58 1.1M
20260503T00Z_MSC_GDPS_VerticalVelocity_IsbL-0850_LatLon0.15_PT030H.grib2 2026-05-03 03:58 1.6M
20260503T00Z_MSC_GDPS_WindChill_Sfc_LatLon0.15_PT030H.grib2 2026-05-03 03:58 5.3M
20260503T00Z_MSC_GDPS_WindDir_AGL-10m_LatLon0.15_PT030H.grib2 2026-05-03 03:58 1.3M
20260503T00Z_MSC_GDPS_WindDir_AGL-120m_LatLon0.15_PT030H.grib2 2026-05-03 03:58 1.3M
20260503T00Z_MSC_GDPS_WindDir_AGL-40m_LatLon0.15_PT030H.grib2 2026-05-03 03:58 1.4M
20260503T00Z_MSC_GDPS_WindDir_AGL-80m_LatLon0.15_PT030H.grib2 2026-05-03 03:58 1.4M
20260503T00Z_MSC_GDPS_WindDir_IsbL-0001_LatLon0.15_PT030H.grib2 2026-05-03 03:58 690K
20260503T00Z_MSC_GDPS_WindDir_IsbL-0005_LatLon0.15_PT030H.grib2 2026-05-03 03:58 824K
20260503T00Z_MSC_GDPS_WindDir_IsbL-0010_LatLon0.15_PT030H.grib2 2026-05-03 03:58 853K
20260503T00Z_MSC_GDPS_WindDir_IsbL-0020_LatLon0.15_PT030H.grib2 2026-05-03 03:58 957K
20260503T00Z_MSC_GDPS_WindDir_IsbL-0030_LatLon0.15_PT030H.grib2 2026-05-03 03:58 951K
20260503T00Z_MSC_GDPS_WindDir_IsbL-0050_LatLon0.15_PT030H.grib2 2026-05-03 03:58 945K
20260503T00Z_MSC_GDPS_WindDir_IsbL-0100_LatLon0.15_PT030H.grib2 2026-05-03 03:58 1.0M
20260503T00Z_MSC_GDPS_WindDir_IsbL-0150_LatLon0.15_PT030H.grib2 2026-05-03 03:58 1.0M
20260503T00Z_MSC_GDPS_WindDir_IsbL-0175_LatLon0.15_PT030H.grib2 2026-05-03 03:58 1.0M
20260503T00Z_MSC_GDPS_WindDir_IsbL-0200_LatLon0.15_PT030H.grib2 2026-05-03 03:58 1.1M
20260503T00Z_MSC_GDPS_WindDir_IsbL-0225_LatLon0.15_PT030H.grib2 2026-05-03 03:58 1.1M
20260503T00Z_MSC_GDPS_WindDir_IsbL-0250_LatLon0.15_PT030H.grib2 2026-05-03 03:58 1.1M
20260503T00Z_MSC_GDPS_WindDir_IsbL-0275_LatLon0.15_PT030H.grib2 2026-05-03 03:58 1.2M
20260503T00Z_MSC_GDPS_WindDir_IsbL-0300_LatLon0.15_PT030H.grib2 2026-05-03 03:58 1.2M
20260503T00Z_MSC_GDPS_WindDir_IsbL-0350_LatLon0.15_PT030H.grib2 2026-05-03 03:58 1.2M
20260503T00Z_MSC_GDPS_WindDir_IsbL-0400_LatLon0.15_PT030H.grib2 2026-05-03 03:58 1.3M
20260503T00Z_MSC_GDPS_WindDir_IsbL-0450_LatLon0.15_PT030H.grib2 2026-05-03 03:58 1.3M
20260503T00Z_MSC_GDPS_WindDir_IsbL-0500_LatLon0.15_PT030H.grib2 2026-05-03 03:58 1.3M
20260503T00Z_MSC_GDPS_WindDir_IsbL-0550_LatLon0.15_PT030H.grib2 2026-05-03 03:58 1.4M
20260503T00Z_MSC_GDPS_WindDir_IsbL-0600_LatLon0.15_PT030H.grib2 2026-05-03 03:58 1.4M
20260503T00Z_MSC_GDPS_WindDir_IsbL-0650_LatLon0.15_PT030H.grib2 2026-05-03 03:58 1.5M
20260503T00Z_MSC_GDPS_WindDir_IsbL-0700_LatLon0.15_PT030H.grib2 2026-05-03 03:58 1.6M
20260503T00Z_MSC_GDPS_WindDir_IsbL-0750_LatLon0.15_PT030H.grib2 2026-05-03 03:58 1.6M
20260503T00Z_MSC_GDPS_WindDir_IsbL-0800_LatLon0.15_PT030H.grib2 2026-05-03 03:58 1.8M
20260503T00Z_MSC_GDPS_WindDir_IsbL-0850_LatLon0.15_PT030H.grib2 2026-05-03 03:58 1.9M
20260503T00Z_MSC_GDPS_WindDir_IsbL-0875_LatLon0.15_PT030H.grib2 2026-05-03 03:58 1.9M
20260503T00Z_MSC_GDPS_WindDir_IsbL-0900_LatLon0.15_PT030H.grib2 2026-05-03 03:58 1.9M
20260503T00Z_MSC_GDPS_WindDir_IsbL-0925_LatLon0.15_PT030H.grib2 2026-05-03 03:58 1.9M
20260503T00Z_MSC_GDPS_WindDir_IsbL-0950_LatLon0.15_PT030H.grib2 2026-05-03 03:58 2.0M
20260503T00Z_MSC_GDPS_WindDir_IsbL-0970_LatLon0.15_PT030H.grib2 2026-05-03 03:58 2.0M
20260503T00Z_MSC_GDPS_WindDir_IsbL-0985_LatLon0.15_PT030H.grib2 2026-05-03 03:58 2.0M
20260503T00Z_MSC_GDPS_WindDir_IsbL-1000_LatLon0.15_PT030H.grib2 2026-05-03 03:58 2.0M
20260503T00Z_MSC_GDPS_WindDir_IsbL-1015_LatLon0.15_PT030H.grib2 2026-05-03 03:58 2.0M
20260503T00Z_MSC_GDPS_WindGust-Max_AGL-10m_LatLon0.15_PT030H.grib2 2026-05-03 03:58 2.2M
20260503T00Z_MSC_GDPS_WindGust-Min_AGL-10m_LatLon0.15_PT030H.grib2 2026-05-03 03:58 2.2M
20260503T00Z_MSC_GDPS_WindGust_AGL-10m_LatLon0.15_PT030H.grib2 2026-05-03 03:58 2.2M
20260503T00Z_MSC_GDPS_WindSpeed_AGL-10m_LatLon0.15_PT030H.grib2 2026-05-03 03:58 1.1M
20260503T00Z_MSC_GDPS_WindSpeed_AGL-120m_LatLon0.15_PT030H.grib2 2026-05-03 03:58 1.2M
20260503T00Z_MSC_GDPS_WindSpeed_AGL-40m_LatLon0.15_PT030H.grib2 2026-05-03 03:58 1.2M
20260503T00Z_MSC_GDPS_WindSpeed_AGL-80m_LatLon0.15_PT030H.grib2 2026-05-03 03:58 1.2M
20260503T00Z_MSC_GDPS_WindSpeed_IsbL-0001_LatLon0.15_PT030H.grib2 2026-05-03 03:58 650K
20260503T00Z_MSC_GDPS_WindSpeed_IsbL-0005_LatLon0.15_PT030H.grib2 2026-05-03 03:58 699K
20260503T00Z_MSC_GDPS_WindSpeed_IsbL-0010_LatLon0.15_PT030H.grib2 2026-05-03 03:58 633K
20260503T00Z_MSC_GDPS_WindSpeed_IsbL-0020_LatLon0.15_PT030H.grib2 2026-05-03 03:58 671K
20260503T00Z_MSC_GDPS_WindSpeed_IsbL-0030_LatLon0.15_PT030H.grib2 2026-05-03 03:58 872K
20260503T00Z_MSC_GDPS_WindSpeed_IsbL-0050_LatLon0.15_PT030H.grib2 2026-05-03 03:58 916K
20260503T00Z_MSC_GDPS_WindSpeed_IsbL-0100_LatLon0.15_PT030H.grib2 2026-05-03 03:58 1.1M
20260503T00Z_MSC_GDPS_WindSpeed_IsbL-0150_LatLon0.15_PT030H.grib2 2026-05-03 03:58 942K
20260503T00Z_MSC_GDPS_WindSpeed_IsbL-0175_LatLon0.15_PT030H.grib2 2026-05-03 03:58 1.0M
20260503T00Z_MSC_GDPS_WindSpeed_IsbL-0200_LatLon0.15_PT030H.grib2 2026-05-03 03:58 1.0M
20260503T00Z_MSC_GDPS_WindSpeed_IsbL-0225_LatLon0.15_PT030H.grib2 2026-05-03 03:58 1.1M
20260503T00Z_MSC_GDPS_WindSpeed_IsbL-0250_LatLon0.15_PT030H.grib2 2026-05-03 03:58 1.1M
20260503T00Z_MSC_GDPS_WindSpeed_IsbL-0275_LatLon0.15_PT030H.grib2 2026-05-03 03:58 1.1M
20260503T00Z_MSC_GDPS_WindSpeed_IsbL-0300_LatLon0.15_PT030H.grib2 2026-05-03 03:58 1.1M
20260503T00Z_MSC_GDPS_WindSpeed_IsbL-0350_LatLon0.15_PT030H.grib2 2026-05-03 03:58 1.1M
20260503T00Z_MSC_GDPS_WindSpeed_IsbL-0400_LatLon0.15_PT030H.grib2 2026-05-03 03:58 1.1M
20260503T00Z_MSC_GDPS_WindSpeed_IsbL-0450_LatLon0.15_PT030H.grib2 2026-05-03 03:58 1.1M
20260503T00Z_MSC_GDPS_WindSpeed_IsbL-0500_LatLon0.15_PT030H.grib2 2026-05-03 03:58 1.1M
20260503T00Z_MSC_GDPS_WindSpeed_IsbL-0550_LatLon0.15_PT030H.grib2 2026-05-03 03:58 1.1M
20260503T00Z_MSC_GDPS_WindSpeed_IsbL-0600_LatLon0.15_PT030H.grib2 2026-05-03 03:58 1.1M
20260503T00Z_MSC_GDPS_WindSpeed_IsbL-0650_LatLon0.15_PT030H.grib2 2026-05-03 03:58 1.4M
20260503T00Z_MSC_GDPS_WindSpeed_IsbL-0700_LatLon0.15_PT030H.grib2 2026-05-03 03:58 1.5M
20260503T00Z_MSC_GDPS_WindSpeed_IsbL-0750_LatLon0.15_PT030H.grib2 2026-05-03 03:58 1.5M
20260503T00Z_MSC_GDPS_WindSpeed_IsbL-0800_LatLon0.15_PT030H.grib2 2026-05-03 03:58 1.6M
20260503T00Z_MSC_GDPS_WindSpeed_IsbL-0850_LatLon0.15_PT030H.grib2 2026-05-03 03:58 1.7M
20260503T00Z_MSC_GDPS_WindSpeed_IsbL-0875_LatLon0.15_PT030H.grib2 2026-05-03 03:58 1.8M
20260503T00Z_MSC_GDPS_WindSpeed_IsbL-0900_LatLon0.15_PT030H.grib2 2026-05-03 03:58 1.8M
20260503T00Z_MSC_GDPS_WindSpeed_IsbL-0925_LatLon0.15_PT030H.grib2 2026-05-03 03:58 1.8M
20260503T00Z_MSC_GDPS_WindSpeed_IsbL-0950_LatLon0.15_PT030H.grib2 2026-05-03 03:58 1.9M
20260503T00Z_MSC_GDPS_WindSpeed_IsbL-0970_LatLon0.15_PT030H.grib2 2026-05-03 03:58 1.9M
20260503T00Z_MSC_GDPS_WindSpeed_IsbL-0985_LatLon0.15_PT030H.grib2 2026-05-03 03:58 1.8M
20260503T00Z_MSC_GDPS_WindSpeed_IsbL-1000_LatLon0.15_PT030H.grib2 2026-05-03 03:58 1.8M
20260503T00Z_MSC_GDPS_WindSpeed_IsbL-1015_LatLon0.15_PT030H.grib2 2026-05-03 03:58 1.8M
20260503T00Z_MSC_GDPS_WindU_AGL-10m_LatLon0.15_PT030H.grib2 2026-05-03 03:58 1.6M
20260503T00Z_MSC_GDPS_WindU_AGL-120m_LatLon0.15_PT030H.grib2 2026-05-03 03:58 966K
20260503T00Z_MSC_GDPS_WindU_AGL-40m_LatLon0.15_PT030H.grib2 2026-05-03 03:58 962K
20260503T00Z_MSC_GDPS_WindU_AGL-80m_LatLon0.15_PT030H.grib2 2026-05-03 03:58 966K
20260503T00Z_MSC_GDPS_WindU_IsbL-0001_LatLon0.15_PT030H.grib2 2026-05-03 03:58 503K
20260503T00Z_MSC_GDPS_WindU_IsbL-0005_LatLon0.15_PT030H.grib2 2026-05-03 03:58 696K
20260503T00Z_MSC_GDPS_WindU_IsbL-0010_LatLon0.15_PT030H.grib2 2026-05-03 03:58 708K
20260503T00Z_MSC_GDPS_WindU_IsbL-0020_LatLon0.15_PT030H.grib2 2026-05-03 03:58 740K
20260503T00Z_MSC_GDPS_WindU_IsbL-0030_LatLon0.15_PT030H.grib2 2026-05-03 03:58 747K
20260503T00Z_MSC_GDPS_WindU_IsbL-0050_LatLon0.15_PT030H.grib2 2026-05-03 03:58 775K
20260503T00Z_MSC_GDPS_WindU_IsbL-0100_LatLon0.15_PT030H.grib2 2026-05-03 03:58 926K
20260503T00Z_MSC_GDPS_WindU_IsbL-0150_LatLon0.15_PT030H.grib2 2026-05-03 03:58 1.0M
20260503T00Z_MSC_GDPS_WindU_IsbL-0175_LatLon0.15_PT030H.grib2 2026-05-03 03:58 1.0M
20260503T00Z_MSC_GDPS_WindU_IsbL-0200_LatLon0.15_PT030H.grib2 2026-05-03 03:58 838K
20260503T00Z_MSC_GDPS_WindU_IsbL-0225_LatLon0.15_PT030H.grib2 2026-05-03 03:58 851K
20260503T00Z_MSC_GDPS_WindU_IsbL-0250_LatLon0.15_PT030H.grib2 2026-05-03 03:58 855K
20260503T00Z_MSC_GDPS_WindU_IsbL-0275_LatLon0.15_PT030H.grib2 2026-05-03 03:58 883K
20260503T00Z_MSC_GDPS_WindU_IsbL-0300_LatLon0.15_PT030H.grib2 2026-05-03 03:58 875K
20260503T00Z_MSC_GDPS_WindU_IsbL-0350_LatLon0.15_PT030H.grib2 2026-05-03 03:58 890K
20260503T00Z_MSC_GDPS_WindU_IsbL-0400_LatLon0.15_PT030H.grib2 2026-05-03 03:58 894K
20260503T00Z_MSC_GDPS_WindU_IsbL-0450_LatLon0.15_PT030H.grib2 2026-05-03 03:58 1.1M
20260503T00Z_MSC_GDPS_WindU_IsbL-0500_LatLon0.15_PT030H.grib2 2026-05-03 03:58 1.1M
20260503T00Z_MSC_GDPS_WindU_IsbL-0550_LatLon0.15_PT030H.grib2 2026-05-03 03:58 1.1M
20260503T00Z_MSC_GDPS_WindU_IsbL-0600_LatLon0.15_PT030H.grib2 2026-05-03 03:58 1.1M
20260503T00Z_MSC_GDPS_WindU_IsbL-0650_LatLon0.15_PT030H.grib2 2026-05-03 03:58 1.2M
20260503T00Z_MSC_GDPS_WindU_IsbL-0700_LatLon0.15_PT030H.grib2 2026-05-03 03:58 1.2M
20260503T00Z_MSC_GDPS_WindU_IsbL-0750_LatLon0.15_PT030H.grib2 2026-05-03 03:58 1.3M
20260503T00Z_MSC_GDPS_WindU_IsbL-0800_LatLon0.15_PT030H.grib2 2026-05-03 03:58 1.3M
20260503T00Z_MSC_GDPS_WindU_IsbL-0850_LatLon0.15_PT030H.grib2 2026-05-03 03:58 1.4M
20260503T00Z_MSC_GDPS_WindU_IsbL-0875_LatLon0.15_PT030H.grib2 2026-05-03 03:58 1.5M
20260503T00Z_MSC_GDPS_WindU_IsbL-0900_LatLon0.15_PT030H.grib2 2026-05-03 03:58 1.4M
20260503T00Z_MSC_GDPS_WindU_IsbL-0925_LatLon0.15_PT030H.grib2 2026-05-03 03:58 1.4M
20260503T00Z_MSC_GDPS_WindU_IsbL-0950_LatLon0.15_PT030H.grib2 2026-05-03 03:58 1.4M
20260503T00Z_MSC_GDPS_WindU_IsbL-0970_LatLon0.15_PT030H.grib2 2026-05-03 03:58 1.4M
20260503T00Z_MSC_GDPS_WindU_IsbL-0985_LatLon0.15_PT030H.grib2 2026-05-03 03:58 1.4M
20260503T00Z_MSC_GDPS_WindU_IsbL-1000_LatLon0.15_PT030H.grib2 2026-05-03 03:58 1.7M
20260503T00Z_MSC_GDPS_WindU_IsbL-1015_LatLon0.15_PT030H.grib2 2026-05-03 03:58 1.6M
20260503T00Z_MSC_GDPS_WindV_AGL-10m_LatLon0.15_PT030H.grib2 2026-05-03 03:58 1.6M
20260503T00Z_MSC_GDPS_WindV_AGL-120m_LatLon0.15_PT030H.grib2 2026-05-03 03:58 961K
20260503T00Z_MSC_GDPS_WindV_AGL-40m_LatLon0.15_PT030H.grib2 2026-05-03 03:58 955K
20260503T00Z_MSC_GDPS_WindV_AGL-80m_LatLon0.15_PT030H.grib2 2026-05-03 03:58 961K
20260503T00Z_MSC_GDPS_WindV_IsbL-0001_LatLon0.15_PT030H.grib2 2026-05-03 03:58 715K
20260503T00Z_MSC_GDPS_WindV_IsbL-0005_LatLon0.15_PT030H.grib2 2026-05-03 03:58 860K
20260503T00Z_MSC_GDPS_WindV_IsbL-0010_LatLon0.15_PT030H.grib2 2026-05-03 03:58 814K
20260503T00Z_MSC_GDPS_WindV_IsbL-0020_LatLon0.15_PT030H.grib2 2026-05-03 03:58 939K
20260503T00Z_MSC_GDPS_WindV_IsbL-0030_LatLon0.15_PT030H.grib2 2026-05-03 03:58 943K
20260503T00Z_MSC_GDPS_WindV_IsbL-0050_LatLon0.15_PT030H.grib2 2026-05-03 03:58 1.0M
20260503T00Z_MSC_GDPS_WindV_IsbL-0100_LatLon0.15_PT030H.grib2 2026-05-03 03:58 859K
20260503T00Z_MSC_GDPS_WindV_IsbL-0150_LatLon0.15_PT030H.grib2 2026-05-03 03:58 1.0M
20260503T00Z_MSC_GDPS_WindV_IsbL-0175_LatLon0.15_PT030H.grib2 2026-05-03 03:58 1.0M
20260503T00Z_MSC_GDPS_WindV_IsbL-0200_LatLon0.15_PT030H.grib2 2026-05-03 03:58 837K
20260503T00Z_MSC_GDPS_WindV_IsbL-0225_LatLon0.15_PT030H.grib2 2026-05-03 03:58 906K
20260503T00Z_MSC_GDPS_WindV_IsbL-0250_LatLon0.15_PT030H.grib2 2026-05-03 03:58 908K
20260503T00Z_MSC_GDPS_WindV_IsbL-0275_LatLon0.15_PT030H.grib2 2026-05-03 03:58 935K
20260503T00Z_MSC_GDPS_WindV_IsbL-0300_LatLon0.15_PT030H.grib2 2026-05-03 03:58 925K
20260503T00Z_MSC_GDPS_WindV_IsbL-0350_LatLon0.15_PT030H.grib2 2026-05-03 03:58 938K
20260503T00Z_MSC_GDPS_WindV_IsbL-0400_LatLon0.15_PT030H.grib2 2026-05-03 03:58 883K
20260503T00Z_MSC_GDPS_WindV_IsbL-0450_LatLon0.15_PT030H.grib2 2026-05-03 03:58 887K
20260503T00Z_MSC_GDPS_WindV_IsbL-0500_LatLon0.15_PT030H.grib2 2026-05-03 03:58 1.1M
20260503T00Z_MSC_GDPS_WindV_IsbL-0550_LatLon0.15_PT030H.grib2 2026-05-03 03:58 1.1M
20260503T00Z_MSC_GDPS_WindV_IsbL-0600_LatLon0.15_PT030H.grib2 2026-05-03 03:58 1.1M
20260503T00Z_MSC_GDPS_WindV_IsbL-0650_LatLon0.15_PT030H.grib2 2026-05-03 03:58 1.2M
20260503T00Z_MSC_GDPS_WindV_IsbL-0700_LatLon0.15_PT030H.grib2 2026-05-03 03:58 1.2M
20260503T00Z_MSC_GDPS_WindV_IsbL-0750_LatLon0.15_PT030H.grib2 2026-05-03 03:58 1.3M
20260503T00Z_MSC_GDPS_WindV_IsbL-0800_LatLon0.15_PT030H.grib2 2026-05-03 03:58 1.3M
20260503T00Z_MSC_GDPS_WindV_IsbL-0850_LatLon0.15_PT030H.grib2 2026-05-03 03:58 1.4M
20260503T00Z_MSC_GDPS_WindV_IsbL-0875_LatLon0.15_PT030H.grib2 2026-05-03 03:58 1.4M
20260503T00Z_MSC_GDPS_WindV_IsbL-0900_LatLon0.15_PT030H.grib2 2026-05-03 03:58 1.4M
20260503T00Z_MSC_GDPS_WindV_IsbL-0925_LatLon0.15_PT030H.grib2 2026-05-03 03:58 1.4M
20260503T00Z_MSC_GDPS_WindV_IsbL-0950_LatLon0.15_PT030H.grib2 2026-05-03 03:58 1.4M
20260503T00Z_MSC_GDPS_WindV_IsbL-0970_LatLon0.15_PT030H.grib2 2026-05-03 03:58 1.4M
20260503T00Z_MSC_GDPS_WindV_IsbL-0985_LatLon0.15_PT030H.grib2 2026-05-03 03:58 1.4M
20260503T00Z_MSC_GDPS_WindV_IsbL-1000_LatLon0.15_PT030H.grib2 2026-05-03 03:58 1.7M
20260503T00Z_MSC_GDPS_WindV_IsbL-1015_LatLon0.15_PT030H.grib2 2026-05-03 03:58 1.6M